Location: Sternwarte_Laufen
(47.9344°N, 12.9346°E)
Time: 05:21:32
(UTC+02:00)

BlueWalker 3 - Pass Details

Date: 18 May 2026
Orbit: 447 x 456 km, 53.2° (Epoch: 10 June)

Event Time Altitude Azimuth Distance (km) Brightness Sun altitude
Exits shadow 01:27:08 55° 320° (NW) 543 2.2 -22.4°
Maximum altitude 01:27:22 57° 339° (NNW) 535 2.2 -22.4°
Drops below altitude 10° 01:30:52 10° 59° (ENE) 1,577 4.9 -22.3°
Sets 01:33:01 0° 64° (ENE) 2,451 5.9 -22.3°
